{"data":{"norad_id":53391,"intl_designator":"2022-097D","name":"STARLINK-4521","alt_names":[],"object_type":"PAYLOAD","status":"ACTIVE","operator":null,"country":"US","launch_date":"2022-08-10","launch_site_code":"AFETR","launch_vehicle":null,"mission":null,"orbit_class":"UNKNOWN","rcs_meters":null,"size_class":null,"mass_kg":null,"dimensions":null,"purposes":["comms"],"wikipedia_slug":null,"has_3d_model":false,"image_url":null,"decayed_at":null,"tle_current":{"epoch":"2026-05-25T03:40:56.225856Z","epoch_age_seconds":61117,"freshness":"FRESH","line1":"1 53391U 22097D   26145.15342854 -.00002157  00000+0 -11746-3 0  9999","line2":"2 53391  53.2125 140.8615 0000977  92.7725 267.3378 15.08849717210213","mean_motion":15.08849717,"eccentricity":9.77e-5,"inclination_deg":53.2125,"raan_deg":140.8615,"arg_perigee_deg":92.7725,"mean_anomaly_deg":267.3378,"bstar":-0.00011746,"rev_number":21021,"period_min":95.436940059419,"perigee_km":539.03781412961,"apogee_km":540.38956215408,"semimajor_km":6917.8506881418,"source":"CELESTRAK","updated_at":"2026-05-25T13:38:17.394371Z"}}}